Montana Department of Transportation

COVID-19

View the Governor’s Coronavirus Task Force site for more information.

Main Content

Accidents and Incidents Report

Hourly Weather Roundup

ASUS45 KTFX 261210

RWRMT 

Montana Regional Weather Roundup

National Weather Service Great Falls MT

500 AM MST THU NOV 26 2020



NOTE: "FAIR" indicates few or no clouds below 12,000 feet with no

significant weather and/or obstructions to visibility.



MTZ001.007-043-261300-

West of the divide

  

CITY           SKY/WX    TMP DP  RH WIND       PRES   REMARKS

Kalispell      MOCLDY    34  26  72 S7        30.09R WCI  28          

Missoula       CLOUDY    32  25  75 E3        30.14S                  

Butte          CLOUDY    22  14  71 NW3       30.05S                  

Anaconda         N/A     28  14  54 SW7       30.08R WCI  21          

Deer Lodge       N/A     25  19  80 NW5       30.11R                  

Hamilton       CLOUDY    34  21  60 S7        30.15R WCI  28          

Mullan Pass    CLOUDY    22  18  85 MISG      30.07R FOG              

Plains           N/A     32  25  76 CALM      30.15R                  

Ronan            N/A     32  27  80 SE9       30.13R WCI  24          

--------------------------------



MTZ008-052.055-261300-

Southwest Montana

  

CITY           SKY/WX    TMP DP  RH WIND       PRES   REMARKS

Bozeman        PTCLDY    17  12  80 SE6       30.06S WCI   9          

Dillon         CLEAR     19  12  74 S12       30.06F WCI   7          

Ennis          CLOUDY    18  10  73 S8        30.11S WCI   7          

Twin Bridges   CLOUDY    19  12  73 S8        30.12R WCI   9          

--------------------------------



MTZ009-010-012-014-046-048-049-054-261300-

East Slopes and Central Montana

  

CITY           SKY/WX    TMP DP  RH WIND       PRES   REMARKS

Cut Bank       MOCLDY    30  18  60 W21       29.86R WCI  17          

Great Falls    CLEAR     24  15  68 SW12      29.92R WCI  13          

Helena         MOCLDY    33  17  51 W9G29     30.01S WCI  25          

Malmstrom AFB  PTCLDY    25  20  80 SW13      29.93S WCI  14          

Bowmans Corner FAIR      28  15  58 SW9       29.91R WCI  19          

Choteau          N/A     34  14  44 W12G20    29.89R WCI  25          

Fairfield      CLOUDY    32  15  50 W16       29.90S WCI  21          

Raynesford     FAIR      31  15  50 SW22      29.90  WCI  19          

Ulm            FAIR      29  18  64 W10       29.93S WCI  20          

White Sulphur    N/A     27  12  54 VRB6G12   29.95S WCI  20          

--------------------------------



MTZ011-013-016-021-045-047-050-051-261300-

North Central Montana

  

CITY           SKY/WX    TMP DP  RH WIND       PRES   REMARKS

Havre          CLEAR     28  19  69 SW20      29.86S WCI  15          

Lewistown      CLEAR     24  15  68 SW14      29.90S WCI  12          

Denton         FAIR      27  16  62 SW12      29.87S WCI  17          

Fort Benton      N/A     28  18  64 S10       29.92R WCI  19          

Geyser         MOCLDY    25  15  65 W10       29.90S WCI  15          

Grass Range    MOCLDY    25  16  66 W9        29.87R WCI  16          

N Bar Ranch    FAIR      25   9  50 VRB3      29.89S                  

Roy            FAIR      30  15  52 W20       29.87S WCI  18          

Stanford       FAIR      26  15  63 W13       29.89R WCI  15          

Winifred       FAIR      27  15  61 SW14      29.88S WCI  16          

--------------------------------



MTZ017.020-022.027-061-062-261300-

Northeast Montana

  

CITY           SKY/WX    TMP DP  RH WIND       PRES   REMARKS

Glasgow        PTCLDY    28  23  81 W6        29.84F WCI  22          

Circle           N/A     21  19  93 S8        29.88  WCI  12          

Glendive       CLEAR     25  23  92 SW8       29.91S WCI  16          

Jordan           N/A     24  21  88 W3        29.89F                  

Plentywood     MOCLDY    19  18  93 S5        29.82F                  

Poplar           N/A     25  21  86 CALM      29.87S                  

Sidney         PTCLDY    27  25  92 W9        29.89F WCI  18          

Wolf Point     CLEAR     22  19  89 CALM      29.87F FOG              

--------------------------------



MTZ028.42-056.058-261300-

Southcentral and southeast Montana

  

CITY           SKY/WX    TMP DP  RH WIND       PRES   REMARKS

Baker          CLEAR     26  22  84 W13       29.93S WCI  15          

Big Timber     PTCLDY    27  12  54 W20G29    29.98R WCI  13          

Billings       CLEAR     29  14  53 W14       29.97S WCI  18          

Ekalaka          N/A     25  21  84 MISG      29.90F                  

Hardin         MOSUNNY   19  14  79 W7        29.98  WCI  10          

Harlowton      FAIR      24  14  65 W22       29.91F WCI   9          

Laurel           N/A     23  16  74 SW13      29.99S WCI  11          

Livingston     PTCLDY    27  14  58 SW23      29.97F WCI  12          

Miles City     MOCLDY    27  25  92 SW7       29.94S WCI  19          

Roundup          N/A     25  12  57 N7        29.85F WCI  17          

--------------------------------



Regional Reports...Dakotas/MN

  

CITY           SKY/WX    TMP DP  RH WIND       PRES   REMARKS

Williston      SUNNY     21  18  88 SW10      29.84S WCI  10          

Minot          CLEAR     30  22  72 W15       29.83S WCI  19          

Dickinson      CLEAR     25  21  85 W8        29.86S WCI  16          

Beach          FAIR      27  27 100 SW12G18   29.92R WCI  16          

Crosby         FAIR      19  19 100 S13       29.81F WCI   7          

Hettinger      MOCLDY    28  23  81 NW12      29.92S WCI  18          

Tioga          FAIR      23  23 100 W14       29.84S WCI  11          

Watford City   FAIR      27  27 100 SW12      29.88S WCI  16          

Bismarck       PTCLDY    34  26  72 W10       29.89S WCI  26          

Grand Forks    CLOUDY    32  25  75 NW17G24   29.80R WCI  21          

Fargo          CLOUDY    28  26  92 SW7       29.83R WCI  21          

Buffalo SD       N/A     27  21  78 NW13      29.91R WCI  16          

Rapid City     PTCLDY    26  23  88 CALM      29.95R                  

Intl Falls     CLOUDY    29  25  85 SW8       29.69R WCI  21          

Duluth         CLOUDY    30  26  85 W8        29.76R WCI  22          

Minneapolis    CLOUDY    32  28  85 SW8       29.85R WCI  25          

--------------------------------



Regional Reports...WY/ID/WA

  

CITY           SKY/WX    TMP DP  RH WIND       PRES   REMARKS

Buffalo WY     CLOUDY    28  22  78 N7        29.95R WCI  21          

Cody           CLOUDY    20  16  84 N3        29.99F                  

Gillette       PTCLDY    23  22  96 CALM      29.96R                  

Powell         FAIR      27  14  59 S10       29.96S WCI  17          

Sheridan       MOCLDY    23  19  85 W5        29.98R                  

Yellowstone La   N/A      3   1  91 CALM      30.01S                  

Boise          FOG       27  26  96 SW3       30.27  VSB 1/4          

Couer d'Alene  MOCLDY    31  30  96 S7        30.23S WCI  24          

Idaho Falls    FOG       17  17 100 SW8       30.16R VSB 1   WCI   7  

Salmon         CLOUDY    20  18  92 CALM      30.20S                  

Spokane        FOG       31  29  92 SW9       30.23R VSB 3/4 WCI  23  

Seattle        CLOUDY    44  43  96 S5        30.36R                  

--------------------------------



Regional Reports...Alberta

  

CITY           SKY/WX    TMP DP  RH WIND       PRES   REMARKS

Calgary        PTCLDY    23  19  86 N10       29.83R WCI  12          

Cardston         N/A     32  18  55 W16G22      N/A  WCI  21          

Edmonton       CLEAR     23  14  68 W8        29.81R WCI  14          

Fort McMurray  PTCLDY     9   5  85 W8        29.78R WCI  -4          

High Level     CLEAR    -11 -15  84 CALM      29.76F                  

Lethbridge     CLEAR     34  19  55 W26G32    29.81S WCI  21          

Lloydminster   CLOUDY    23  19  86 NW14      29.72R WCI  11          

Medicine Hat   PTCLDY    27  18  69 NW14G20   29.84R WCI  15          

Milk River       N/A     27  19  74 W18         N/A  WCI  13          

Onefour          N/A     28  19  69 W23         N/A  WCI  14          

Peace River    MOCLDY     3   0  85 W9        29.76F WCI -11          

Pincher Creek    N/A     30  18  59 W21G30    29.87S WCI  17          

Raymond          N/A     32  21  64 W26         N/A  WCI  18          

Fort Smith NWT FLURRIES   7   1  78 W9        29.76R WCI  -7          

--------------------------------



Regional Reports...Saskatchewan

  

CITY           SKY/WX    TMP DP  RH WIND       PRES   REMARKS

Assiniboia       N/A     28  21  74 SW16        N/A  WCI  17          

Estevan        CLEAR     19  18  93 SW10      29.79S WCI   8          

La Ronge         N/A      9   7  92 W5          N/A                   

Prince Albert  LGT SNOW  21  19  93 N9        29.65R WCI  11          

Regina         CLOUDY    25  21  86 W7        29.72S WCI  17          

Saskatoon      MOCLDY    28  25  86 W16       29.61R WCI  17          

Swift Current  CLOUDY    25  19  80 W18G24    29.72R WCI  11          

Uranium City     N/A      0  -6  78 MISG        N/A                   

--------------------------------